Flag for Canada

Past Weather in Iqaluit, Nunavut, Canada — Yesterday and Last 2 Weeks

Now
34 °F

Light snow. Light fog.


Feels Like: 26 °F
Forecast: 38 / 34 °F
Wind: 10 mph from East

Location: Iqaluit
Current Time: Sep 24, 2020 at 3:01:06 pm
Latest Report: Sep 24, 2020 at 2:00 pm
Visibility: 4 mi
Pressure29.36 "Hg
Humidity: 93%
Dew Point: 32 °F
Location of IqaluitLocation

Past Weather in Iqaluit — Graph

°F

Iqaluit Temperature Yesterday

Maximum temperature yesterday: 37 °F (at 12:00 pm)
Minimum temperature yesterday: 34 °F (at 4:22 am)
Average temperature yesterday: 35 °F

High & Low Weather Summary for the Past Weeks

 TemperatureHumidityPressure
High45 °F (Sep 15, 1:00 pm)100% (Sep 19, 3:00 pm)30.15 "Hg (Sep 19, 3:00 pm)
Low27 °F (Sep 22, 5:00 am)53% (Sep 14, 12:00 pm)29.36 "Hg (Sep 24, 2:00 pm)
Average36 °F77%29.74 "Hg
* Reported Sep 9 2:00 pm — Sep 24 2:00 pm, Iqaluit. Weather by CustomWeather, © 2020

Note: Actual official high and low records may vary slightly from our data, if they occured in-between our weather recording intervals... More about our weather records

Iqaluit Weather History for the Previous 24 Hours

Scroll right to see more
 ConditionsComfort  
Time TempWeatherWind HumidityBarometerVisibility
2:00 pm
Thu, Sep 24
34 °FLight snow. Light fog.10 mph93%29.36 "Hg4 mi
1:20 pm36 °FLight snow. Fog.12 mph81%29.36 "Hg3 mi
12:36 pm37 °FLight rain. Overcast.13 mph75%29.36 "Hg12 mi
12:00 pm37 °FOvercast.15 mph65%29.37 "Hg25 mi
11:00 am39 °FMostly cloudy.17 mph61%29.38 "Hg30 mi
10:00 am37 °FMostly cloudy.13 mph65%29.38 "Hg30 mi
9:00 am37 °FMostly cloudy.16 mph70%29.38 "Hg30 mi
8:00 am37 °FOvercast.14 mph70%29.39 "Hg30 mi
7:00 am37 °FOvercast.12 mph70%29.40 "Hg25 mi
6:32 am36 °FOvercast.13 mph81%29.41 "Hg20 mi
6:00 am36 °FOvercast.8 mph81%29.41 "Hg15 mi
5:00 am36 °FLight snow. Passing clouds.8 mph81%29.42 "Hg15 mi
4:00 am36 °FLight snow. Passing clouds.15 mph81%29.43 "Hg12 mi
3:42 am37 °FLight snow. Passing clouds.12 mph70%29.43 "Hg15 mi
3:00 am37 °FPassing clouds.15 mph75%29.43 "Hg15 mi
2:00 am37 °FPassing clouds.14 mph75%29.44 "Hg15 mi
1:00 am37 °FPassing clouds.21 mph70%29.45 "Hg15 mi
12:27 am37 °FPassing clouds.21 mph70%29.46 "Hg15 mi
12:00 am37 °FPassing clouds.21 mph75%29.46 "Hg15 mi
11:00 pm
Wed, Sep 23
37 °FLight rain. Mostly cloudy.20 mph75%29.48 "Hg8 mi
10:00 pm36 °FLight rain. Mostly cloudy.18 mph87%29.50 "Hg6 mi
9:00 pm36 °FLight rain. Mostly cloudy.16 mph87%29.51 "Hg4 mi
8:00 pm36 °FLight rain. Mostly cloudy.17 mph87%29.52 "Hg4 mi
7:00 pm36 °FLight rain. Overcast.18 mph87%29.53 "Hg3 mi
6:00 pm36 °FLight rain. Overcast.24 mph87%29.53 "Hg3 mi
5:45 pm36 °FLight rain. Overcast.22 mph87%29.53 "Hg3 mi
5:00 pm34 °FLight snow. Fog.22 mph93%29.53 "Hg3 mi
4:33 pm34 °FLight snow. Overcast.17 mph93%29.54 "Hg3 mi
4:06 pm34 °FLight snow. Low clouds.22 mph93%29.54 "Hg2 mi
3:00 pm36 °FLight snow. Overcast.22 mph87%29.55 "Hg5 mi
Weather by CustomWeather, © 2020

See weather overview